CZ-3B DEB, 40163

Orbit data source: Space-Track

CZ-3B DEB, 40163 is space debris in HEO originally from a launch on Sat, 04 Sep 2010 UTC launched from the Xichang Space Center, China (XSC). Debris objects in space refer to the collection of defunct objects orbiting the Earth. Examples of debris include non-operational satellites, rocket bodies, and fragments generated from explosions, collisions, or faulty payload assembly.

Loading next visibility...
Identifier
40163, 2010-042Q
Orbit
HEO
Country
Flag of CNCN / PRC
Related business
Manufacturer
CALT
Mission
Spacecraft
Bus & Motor
Unknown
Mass
Unknown
Launch date (UTC)
2010-09-04 (16 years ago)
Launch vehicle
Unknown
Launch site
Xichang Space Center, China (XSC)
Object type
Payload
Rocket body
Debris
Shape & HBR
Unknown shape, 0.1 m
Radar Cross Section
Medium (>0.1 m² and <1 m²)

Expand to show TLE details & history
Last TLE update: 2 months ago

TLE from 2 months ago
0 CZ-3B DEB
1 40163U 10042Q   26163.53213920 -.00000367  00000-0 -49780-2 0  9992
2 40163  27.5534 109.6324 7346177 202.3655 356.3004  1.92686763 82408
Epoch: 2026-06-12T12:46Z
TLE epoch observation values (Epoch: 2026-06-12T12:46:16.826Z)
Latitude
4.4039°
Longitude
-171.3147°
Altitude
1,361.703 km
Speed
9.401 km/s
True Right ascension
18h 44m 27s
True Declination
4° 22' 47"
Sunlit
Object was in full shadow at epoch
Visualization orbit readout
Latitude
Unknown
Longitude
Unknown
Altitude
Unknown
Speed
Unknown
Apparent Right ascension
Unknown
Apparent Declination
Unknown
Sunlit
N/A
Visualization observer readout
Local Sidereal Time
00:45:48
Azimuth
Unknown
Elevation
Unknown
Doppler factor
Unknown
Orbital elements
Apogee altitude
40,947.214 km
Perigee altitude
862.254 km
Semi-major axis
27,282.871 km
Eccentricity
0.73462
Inclination
27.5534°
RAAN
109.6324°
Arg. of periapsis
202.3655°
True anomaly
326.1176°
Mean anomaly
356.3004°
Eccentric anomaly
346.41102°
Mean motion
0.48162 °/min
Orbital period
747.47 mins
BSTAR
-0.004978
Loading maneuver chart data...
Computing Atmospheric mass density...
Loading historical data...
Loading historical data...
Loading historical data...
Loading historical data...
Loading historical data...
Loading historical data...
Loading historical data...

Documentation

Showing up to 5 results
|